This demonstration page uses our WeatherBlox Daily Observations layout. Learn more.

Left ArrowRight Arrow

41.55636, -103.73856

Hourly Observations for July 29, 2021

Temp ( °F °C ) Dew Point ( °F °C ) Humidity (%) Winds ( mph kmh ) Pressure ( in mb ) Visibility ( mi km ) Precip ( " mm )
12:58 am 00:58 Mostly Clear 75 23.7 54 12.2 49 49 NE 14 22 29.99 1016 10 16 N/A
1:58 am 01:58 Clear 71 21.6 57 13.7 61 61 ENE 9 15 30.00 1016 10 16 N/A
2:58 am 02:58 Clear 70 21 61 16.2 74 74 NE 12 19 30.00 1016 10 16 N/A
3:58 am 03:58 Clear 68 20.2 64 17.6 85 85 NE 12 19 30.00 1016 10 16 N/A
4:58 am 04:58 Mostly Clear 67 19.3 64 17.8 91 91 NE 8 13 30.03 1017 9 14 N/A
5:58 am 05:58 Mostly Cloudy 69 20.3 65 18.1 87 87 NE 12 19 30.05 1018 10 16 N/A
6:58 am 06:58 Mostly Cloudy 69 20.4 64 17.6 84 84 NE 15 24 30.08 1019 10 16 N/A
7:58 am 07:58 Mostly Cloudy 69 20.7 64 17.6 83 83 NE 15 24 30.11 1020 10 16 N/A
8:58 am 08:58 Mostly Cloudy 70 21 64 17.5 81 81 NNE 14 22 30.14 1021 10 16 N/A
9:58 am 09:58 Mostly Cloudy 69 20.8 64 17.6 82 82 NE 13 20 30.15 1021 10 16 N/A
10:58 am 10:58 Mostly Cloudy 70 21.1 64 17.6 81 81 NE 14 22 30.16 1021 10 16 N/A
11:58 am 11:58 Cloudy 70 20.9 63 17.4 80 80 NE 9 15 30.16 1021 10 16 N/A
12:58 pm 12:58 Mostly Cloudy 73 22.5 64 17.5 73 73 ENE 7 11 30.15 1021 10 16 N/A
1:58 pm 13:58 Mostly Cloudy 75 24 64 17.5 67 67 ENE 6 9 30.14 1021 10 16 N/A
2:58 pm 14:58 Mostly Cloudy 79 26.2 64 17.8 60 60 NE 10 17 30.10 1019 10 16 N/A
3:58 pm 15:58 Sunny 85 29.5 63 17.4 48 48 E 13 20 30.06 1018 10 16 N/A
4:58 pm 16:58 Sunny 87 30.5 61 16.3 42 42 E 16 26 30.04 1017 10 16 N/A
5:58 pm 17:58 Sunny 87 30.8 60 15.4 39 39 E 18 30 30.00 1016 10 16 N/A
6:58 pm 18:58 Sunny 84 28.8 59 15.2 44 44 E 16 26 30.00 1016 10 16 N/A
7:58 pm 19:58 Sunny 81 27 61 15.9 51 51 E 15 24 30.02 1017 10 16 N/A
8:58 pm 20:58 Clear 76 24.6 61 15.9 58 58 ESE 15 24 30.02 1017 10 16 N/A
9:58 pm 21:58 Clear 75 23.7 62 16.9 66 66 ESE 15 24 30.04 1017 10 16 N/A
10:58 pm 22:58 Clear 74 23.3 63 17.3 69 69 ESE 13 20 30.03 1017 10 16 N/A
11:58 pm 23:58 Clear 73 22.6 64 17.8 74 74 SE 17 28 30.02 1017 10 16 N/A

Powered by AerisWeather